Time,TemperatureF,DewpointF,PressureIn,WindDirection,WindDirectionDegrees,WindSpeedMPH,WindSpeedGustMPH,Humidity,HourlyPrecipIn,Conditions,Clouds,dailyrainin,SoftwareType,DateUTC
2013-04-21 00:01:00,47.0,37.7,30.28,NNW,344,0.0,0.0,70,0.00,CLR,,0.00,WeatherDisplay:10.37,2013-04-21 04:01:00,
2013-04-21 00:06:00,46.7,35.9,30.28,NNW,344,0.0,0.0,66,0.00,CLR,,0.00,WeatherDisplay:10.37,2013-04-21 04:06:00,
2013-04-21 00:11:00,46.6,36.6,30.28,NNW,344,0.0,0.0,68,0.00,CLR,,0.00,WeatherDisplay:10.37,2013-04-21 04:11:00,
2013-04-21 00:16:00,46.5,36.1,30.28,NNW,344,0.0,0.0,67,0.00,CLR,,0.00,WeatherDisplay:10.37,2013-04-21 04:16:00,
2013-04-21 00:21:00,46.4,37.1,30.28,NNW,344,0.0,0.0,70,0.00,CLR,,0.00,WeatherDisplay:10.37,2013-04-21 04:21:00,
2013-04-21 00:26:00,46.4,36.8,30.28,NNW,344,0.0,0.0,69,0.00,CLR,,0.00,WeatherDisplay:10.37,2013-04-21 04:26:00,
2013-04-21 00:31:00,46.2,36.6,30.28,NNW,344,0.0,0.0,69,0.00,CLR,,0.00,WeatherDisplay:10.37,2013-04-21 04:31:00,
2013-04-21 00:36:00,46.1,36.9,30.28,NNW,344,0.0,0.0,70,0.00,CLR,,0.00,WeatherDisplay:10.37,2013-04-21 04:36:00,
2013-04-21 00:41:00,45.9,35.6,30.29,NNW,344,0.0,0.0,67,0.00,CLR,,0.00,WeatherDisplay:10.37,2013-04-21 04:41:00,
2013-04-21 00:46:00,45.7,35.7,30.29,NNW,344,0.0,0.0,68,0.00,CLR,,0.00,WeatherDisplay:10.37,2013-04-21 04:46:00,
2013-04-21 00:51:00,45.6,36.4,30.29,NNW,344,0.0,0.0,70,0.00,CLR,,0.00,WeatherDisplay:10.37,2013-04-21 04:51:00,
2013-04-21 00:56:00,45.4,37.6,30.29,NNW,344,0.0,0.0,74,0.00,CLR,,0.00,WeatherDisplay:10.37,2013-04-21 04:56:00,
2013-04-21 01:01:00,45.3,37.5,30.29,NNW,344,0.0,0.0,74,0.00,CLR,,0.00,WeatherDisplay:10.37,2013-04-21 05:01:00,
2013-04-21 01:06:00,45.1,37.3,30.29,NNW,344,0.0,0.0,74,0.00,CLR,,0.00,WeatherDisplay:10.37,2013-04-21 05:06:00,
2013-04-21 01:11:00,45.0,37.6,30.29,NNW,344,0.0,0.0,75,0.00,CLR,,0.00,WeatherDisplay:10.37,2013-04-21 05:11:00,
2013-04-21 01:16:00,45.0,37.9,30.29,NNW,344,0.0,0.0,76,0.00,CLR,,0.00,WeatherDisplay:10.37,2013-04-21 05:16:00,
2013-04-21 01:21:00,44.9,36.8,30.29,NNW,344,0.0,0.0,73,0.00,CLR,,0.00,WeatherDisplay:10.37,2013-04-21 05:21:00,
2013-04-21 01:26:00,44.9,36.1,30.29,NNW,344,0.0,0.0,71,0.00,CLR,,0.00,WeatherDisplay:10.37,2013-04-21 05:26:00,
2013-04-21 01:31:00,44.9,36.8,30.29,NNW,344,0.0,0.0,73,0.00,CLR,,0.00,WeatherDisplay:10.37,2013-04-21 05:31:00,
2013-04-21 01:36:00,44.9,37.1,30.29,NNW,344,0.0,0.0,74,0.00,CLR,,0.00,WeatherDisplay:10.37,2013-04-21 05:36:00,
2013-04-21 01:41:00,44.8,36.3,30.29,NNW,344,0.0,0.0,72,0.00,CLR,,0.00,WeatherDisplay:10.37,2013-04-21 05:41:00,
2013-04-21 01:46:00,44.7,36.6,30.29,NNW,344,0.0,0.0,73,0.00,CLR,,0.00,WeatherDisplay:10.37,2013-04-21 05:46:00,
2013-04-21 01:51:00,44.8,36.3,30.29,NNW,344,0.0,0.0,72,0.00,CLR,,0.00,WeatherDisplay:10.37,2013-04-21 05:51:00,
2013-04-21 01:56:00,44.8,36.7,30.29,NNW,344,0.0,0.0,73,0.00,CLR,,0.00,WeatherDisplay:10.37,2013-04-21 05:56:00,
2013-04-21 02:01:00,44.8,36.3,30.30,NNW,344,0.0,0.0,72,0.00,CLR,,0.00,WeatherDisplay:10.37,2013-04-21 06:01:00,
2013-04-21 02:06:00,44.7,37.3,30.30,NNW,344,0.0,0.0,75,0.00,CLR,,0.00,WeatherDisplay:10.37,2013-04-21 06:06:00,
2013-04-21 02:11:00,44.6,37.5,30.30,NNW,344,0.0,0.0,76,0.00,CLR,,0.00,WeatherDisplay:10.37,2013-04-21 06:11:00,
2013-04-21 02:16:00,44.4,37.3,30.29,NNW,344,0.0,0.0,76,0.00,CLR,,0.00,WeatherDisplay:10.37,2013-04-21 06:16:00,
2013-04-21 02:21:00,44.2,37.4,30.29,NNW,344,0.0,0.0,77,0.00,CLR,,0.00,WeatherDisplay:10.37,2013-04-21 06:21:00,
2013-04-21 02:26:00,44.0,37.3,30.29,NNW,344,0.0,0.0,77,0.00,CLR,,0.00,WeatherDisplay:10.37,2013-04-21 06:26:00,
2013-04-21 02:31:00,43.8,37.4,30.29,NNW,344,0.0,0.0,78,0.00,CLR,,0.00,WeatherDisplay:10.37,2013-04-21 06:31:00,
2013-04-21 02:36:00,43.5,36.8,30.30,NNW,344,0.0,0.0,77,0.00,CLR,,0.00,WeatherDisplay:10.37,2013-04-21 06:36:00,
2013-04-21 02:41:00,43.3,36.6,30.30,NNW,344,0.0,0.0,77,0.00,CLR,,0.00,WeatherDisplay:10.37,2013-04-21 06:41:00,
2013-04-21 02:46:00,43.1,37.0,30.30,NNW,344,0.0,0.0,79,0.00,CLR,,0.00,WeatherDisplay:10.37,2013-04-21 06:46:00,
2013-04-21 02:51:00,42.9,36.8,30.30,NNW,344,0.0,0.0,79,0.00,CLR,,0.00,WeatherDisplay:10.37,2013-04-21 06:51:00,
2013-04-21 02:56:00,42.8,36.7,30.31,NNW,344,0.0,0.0,79,0.00,CLR,,0.00,WeatherDisplay:10.37,2013-04-21 06:56:00,
2013-04-21 03:01:00,42.6,36.5,30.31,NNW,344,0.0,0.0,79,0.00,CLR,,0.00,WeatherDisplay:10.37,2013-04-21 07:01:00,
2013-04-21 03:06:00,42.4,36.3,30.31,NNW,344,0.0,0.0,79,0.00,CLR,,0.00,WeatherDisplay:10.37,2013-04-21 07:06:00,
2013-04-21 03:11:00,42.1,36.1,30.31,NNW,344,0.0,0.0,79,0.00,CLR,,0.00,WeatherDisplay:10.37,2013-04-21 07:11:00,
2013-04-21 03:16:00,41.9,36.2,30.31,NNW,344,0.0,0.0,80,0.00,CLR,,0.00,WeatherDisplay:10.37,2013-04-21 07:16:00,
2013-04-21 03:21:00,41.6,36.2,30.31,NNW,344,0.0,0.0,81,0.00,CLR,,0.00,WeatherDisplay:10.37,2013-04-21 07:21:00,
2013-04-21 03:26:00,41.5,36.1,30.31,NNW,344,0.0,0.0,81,0.00,CLR,,0.00,WeatherDisplay:10.37,2013-04-21 07:26:00,
2013-04-21 03:31:00,41.4,36.3,30.31,NNW,344,0.0,0.0,82,0.00,CLR,,0.00,WeatherDisplay:10.37,2013-04-21 07:31:00,
2013-04-21 03:36:00,41.4,36.0,30.32,NNW,344,0.0,0.0,81,0.00,CLR,,0.00,WeatherDisplay:10.37,2013-04-21 07:36:00,
2013-04-21 03:41:00,41.4,36.0,30.32,NNW,344,0.0,0.0,81,0.00,CLR,,0.00,WeatherDisplay:10.37,2013-04-21 07:41:00,
2013-04-21 03:46:00,41.6,35.9,30.32,NNW,344,0.0,0.0,80,0.00,CLR,,0.00,WeatherDisplay:10.37,2013-04-21 07:46:00,
2013-04-21 03:51:00,41.7,35.7,30.32,NNW,344,0.0,0.0,79,0.00,CLR,,0.00,WeatherDisplay:10.37,2013-04-21 07:51:00,
2013-04-21 03:56:00,41.8,35.4,30.32,NNW,345,0.0,0.0,78,0.00,CLR,,0.00,WeatherDisplay:10.37,2013-04-21 07:56:00,
2013-04-21 04:01:00,41.8,35.4,30.32,NNW,344,0.0,0.0,78,0.00,CLR,,0.00,WeatherDisplay:10.37,2013-04-21 08:01:00,
2013-04-21 04:06:00,41.8,35.8,30.32,NNW,344,0.0,0.0,79,0.00,CLR,,0.00,WeatherDisplay:10.37,2013-04-21 08:06:00,
2013-04-21 04:11:00,41.7,36.0,30.33,NNW,344,0.0,0.0,80,0.00,CLR,,0.00,WeatherDisplay:10.37,2013-04-21 08:11:00,
2013-04-21 04:16:00,41.5,35.5,30.33,NNW,345,0.0,0.0,79,0.00,CLR,,0.00,WeatherDisplay:10.37,2013-04-21 08:16:00,
2013-04-21 04:21:00,41.4,35.1,30.33,NNW,344,0.0,0.0,78,0.00,CLR,,0.00,WeatherDisplay:10.37,2013-04-21 08:21:00,
2013-04-21 04:27:00,41.3,35.3,30.33,NNW,345,0.0,0.0,79,0.00,CLR,,0.00,WeatherDisplay:10.37,2013-04-21 08:27:00,
2013-04-21 04:32:00,41.2,34.5,30.33,NNW,345,0.0,0.0,77,0.00,CLR,,0.00,WeatherDisplay:10.37,2013-04-21 08:32:00,
2013-04-21 04:37:00,41.3,34.6,30.34,NNW,345,0.0,0.0,77,0.00,CLR,,0.00,WeatherDisplay:10.37,2013-04-21 08:37:00,
2013-04-21 04:42:00,41.3,34.6,30.34,NNW,345,0.0,0.0,77,0.00,CLR,,0.00,WeatherDisplay:10.37,2013-04-21 08:42:00,
2013-04-21 04:47:00,41.3,34.6,30.34,NNW,344,0.0,0.0,77,0.00,CLR,,0.00,WeatherDisplay:10.37,2013-04-21 08:47:00,
2013-04-21 04:52:00,41.3,35.0,30.34,NNW,345,0.0,0.0,78,0.00,CLR,,0.00,WeatherDisplay:10.37,2013-04-21 08:52:00,
2013-04-21 04:57:00,41.3,34.6,30.34,NNW,346,2.3,2.3,77,0.00,CLR,,0.00,WeatherDisplay:10.37,2013-04-21 08:57:00,
2013-04-21 05:02:00,41.2,35.2,30.34,NNW,346,0.0,0.0,79,0.00,CLR,,0.00,WeatherDisplay:10.37,2013-04-21 09:02:00,
2013-04-21 05:07:00,41.1,34.4,30.34,NNW,346,0.0,0.0,77,0.00,CLR,,0.00,WeatherDisplay:10.37,2013-04-21 09:07:00,
2013-04-21 05:12:00,41.0,34.3,30.34,NNW,347,0.0,0.0,77,0.00,CLR,,0.00,WeatherDisplay:10.37,2013-04-21 09:12:00,
2013-04-21 05:17:00,40.9,34.2,30.34,NNW,346,0.0,0.0,77,0.00,CLR,,0.00,WeatherDisplay:10.37,2013-04-21 09:17:00,
2013-04-21 05:22:00,40.8,34.5,30.34,NNW,347,0.0,0.0,78,0.00,CLR,,0.00,WeatherDisplay:10.37,2013-04-21 09:22:00,
2013-04-21 05:27:00,40.6,34.0,30.35,NNW,347,1.0,1.0,77,0.00,CLR,,0.00,WeatherDisplay:10.37,2013-04-21 09:27:00,
2013-04-21 05:32:00,40.4,33.4,30.35,East,80,1.0,1.0,76,0.00,CLR,,0.00,WeatherDisplay:10.37,2013-04-21 09:32:00,
2013-04-21 05:37:00,40.5,33.5,30.35,East,88,0.0,0.0,76,0.00,CLR,,0.00,WeatherDisplay:10.37,2013-04-21 09:37:00,
2013-04-21 05:42:00,40.5,33.9,30.35,East,89,1.0,1.0,77,0.00,CLR,,0.00,WeatherDisplay:10.37,2013-04-21 09:42:00,
2013-04-21 05:47:00,40.5,33.5,30.35,East,89,0.0,0.0,76,0.00,CLR,,0.00,WeatherDisplay:10.37,2013-04-21 09:47:00,
2013-04-21 05:52:00,40.4,33.8,30.36,East,88,0.0,0.0,77,0.00,CLR,,0.00,WeatherDisplay:10.37,2013-04-21 09:52:00,
2013-04-21 05:57:00,40.3,34.3,30.36,East,88,0.0,0.0,79,0.00,CLR,,0.00,WeatherDisplay:10.37,2013-04-21 09:57:00,
2013-04-21 06:02:00,40.1,33.8,30.36,East,89,0.0,0.0,78,0.00,CLR,,0.00,WeatherDisplay:10.37,2013-04-21 10:02:00,
2013-04-21 06:07:00,39.9,33.9,30.36,East,88,0.0,0.0,79,0.00,CLR,,0.00,WeatherDisplay:10.37,2013-04-21 10:07:00,
2013-04-21 06:12:00,39.7,33.4,30.37,East,88,0.0,0.0,78,0.00,CLR,,0.00,WeatherDisplay:10.37,2013-04-21 10:12:00,
2013-04-21 06:17:00,39.6,33.6,30.37,East,89,0.0,0.0,79,0.00,CLR,,0.00,WeatherDisplay:10.37,2013-04-21 10:17:00,
2013-04-21 06:22:00,39.4,33.4,30.37,East,89,0.0,0.0,79,0.00,CLR,,0.00,WeatherDisplay:10.37,2013-04-21 10:22:00,
2013-04-21 06:27:00,39.2,32.9,30.38,East,89,0.0,0.0,78,0.00,CLR,,0.00,WeatherDisplay:10.37,2013-04-21 10:27:00,
2013-04-21 06:32:00,39.1,32.8,30.38,East,88,2.3,2.3,78,0.00,CLR,,0.00,WeatherDisplay:10.37,2013-04-21 10:32:00,
2013-04-21 06:37:00,39.1,32.8,30.38,East,89,0.0,0.0,78,0.00,CLR,,0.00,WeatherDisplay:10.37,2013-04-21 10:37:00,
2013-04-21 06:42:00,39.1,33.1,30.38,East,88,0.0,0.0,79,0.00,CLR,,0.00,WeatherDisplay:10.37,2013-04-21 10:42:00,
2013-04-21 06:47:00,39.1,32.8,30.39,East,88,0.0,0.0,78,0.00,CLR,,0.00,WeatherDisplay:10.37,2013-04-21 10:47:00,
2013-04-21 06:52:00,39.1,32.8,30.39,East,88,2.3,0.0,78,0.00,CLR,,0.00,WeatherDisplay:10.37,2013-04-21 10:52:00,
2013-04-21 06:57:00,39.0,32.7,30.39,East,89,0.0,0.0,78,0.00,CLR,,0.00,WeatherDisplay:10.37,2013-04-21 10:57:00,
2013-04-21 07:02:00,39.0,32.1,30.40,East,89,2.3,2.3,76,0.00,CLR,,0.00,WeatherDisplay:10.37,2013-04-21 11:02:00,
2013-04-21 07:07:00,39.3,32.0,30.40,East,82,3.5,3.5,75,0.00,CLR,,0.00,WeatherDisplay:10.37,2013-04-21 11:07:00,
2013-04-21 07:12:00,39.8,32.2,30.40,NE,44,3.5,3.5,74,0.00,CLR,,0.00,WeatherDisplay:10.37,2013-04-21 11:12:00,
2013-04-21 07:17:00,40.2,32.2,30.41,NE,37,2.3,0.0,73,0.00,CLR,,0.00,WeatherDisplay:10.37,2013-04-21 11:17:00,
2013-04-21 07:22:00,40.5,32.2,30.41,NE,37,3.5,3.5,72,0.00,CLR,,0.00,WeatherDisplay:10.37,2013-04-21 11:22:00,
2013-04-21 07:27:00,40.8,32.5,30.41,NNE,24,4.0,4.0,72,0.00,CLR,,0.00,WeatherDisplay:10.37,2013-04-21 11:27:00,
2013-04-21 07:32:00,41.4,32.3,30.41,NE,46,8.1,8.1,70,0.00,CLR,,0.00,WeatherDisplay:10.37,2013-04-21 11:32:00,
2013-04-21 07:37:00,41.9,32.5,30.41,ENE,57,5.8,5.8,69,0.00,CLR,,0.00,WeatherDisplay:10.37,2013-04-21 11:37:00,
2013-04-21 07:42:00,42.7,32.9,30.42,North,360,3.5,3.5,68,0.00,CLR,,0.00,WeatherDisplay:10.37,2013-04-21 11:42:00,
2013-04-21 07:47:00,43.3,33.4,30.42,NE,49,4.6,4.6,68,0.00,CLR,,0.00,WeatherDisplay:10.37,2013-04-21 11:47:00,
2013-04-21 07:52:00,43.8,33.2,30.42,ENE,57,4.6,4.6,66,0.00,CLR,,0.00,WeatherDisplay:10.37,2013-04-21 11:52:00,
2013-04-21 07:57:00,44.3,33.3,30.42,ENE,76,7.0,7.0,65,0.00,CLR,,0.00,WeatherDisplay:10.37,2013-04-21 11:57:00,
2013-04-21 08:02:00,44.8,33.4,30.42,NE,49,6.9,6.9,64,0.00,CLR,,0.00,WeatherDisplay:10.37,2013-04-21 12:02:00,
2013-04-21 08:07:00,45.3,33.4,30.43,North,5,16.1,16.1,63,0.00,CLR,,0.00,WeatherDisplay:10.37,2013-04-21 12:07:00,
2013-04-21 08:12:00,45.4,33.5,30.43,ENE,58,12.0,12.0,63,0.00,CLR,,0.00,WeatherDisplay:10.37,2013-04-21 12:12:00,
2013-04-21 08:17:00,45.5,33.6,30.43,ENE,67,5.8,7.5,63,0.00,CLR,,0.00,WeatherDisplay:10.37,2013-04-21 12:17:00,
2013-04-21 08:22:00,45.6,33.7,30.44,NE,55,11.5,11.5,63,0.00,CLR,,0.00,WeatherDisplay:10.37,2013-04-21 12:22:00,
2013-04-21 08:27:00,45.8,33.5,30.44,NNE,21,6.9,6.9,62,0.00,CLR,,0.00,WeatherDisplay:10.37,2013-04-21 12:27:00,
2013-04-21 08:32:00,45.9,33.6,30.44,East,83,11.5,11.5,62,0.00,CLR,,0.00,WeatherDisplay:10.37,2013-04-21 12:32:00,
2013-04-21 08:37:00,46.1,33.8,30.44,NE,44,12.7,12.7,62,0.00,CLR,,0.00,WeatherDisplay:10.37,2013-04-21 12:37:00,
2013-04-21 08:42:00,46.2,33.9,30.44,ENE,74,11.5,11.5,62,0.00,CLR,,0.00,WeatherDisplay:10.37,2013-04-21 12:42:00,
2013-04-21 08:47:00,46.3,34.0,30.44,NE,42,10.4,10.4,62,0.00,CLR,,0.00,WeatherDisplay:10.37,2013-04-21 12:47:00,
2013-04-21 08:52:00,46.4,34.1,30.45,NE,45,9.2,9.2,62,0.00,CLR,,0.00,WeatherDisplay:10.37,2013-04-21 12:52:00,
2013-04-21 08:57:00,46.5,33.8,30.45,ENE,75,6.0,6.0,61,0.00,CLR,,0.00,WeatherDisplay:10.37,2013-04-21 12:57:00,
2013-04-21 09:02:00,46.6,33.9,30.45,North,360,13.0,13.0,61,0.00,CLR,,0.00,WeatherDisplay:10.37,2013-04-21 13:02:00,
2013-04-21 09:07:00,46.9,35.0,30.45,NE,55,12.7,12.7,63,0.00,CLR,,0.00,WeatherDisplay:10.37,2013-04-21 13:07:00,
2013-04-21 09:12:00,47.1,34.3,30.45,ENE,59,11.5,11.5,61,0.00,CLR,,0.00,WeatherDisplay:10.37,2013-04-21 13:12:00,
2013-04-21 09:17:00,47.3,34.1,30.45,East,86,11.5,11.5,60,0.00,CLR,,0.00,WeatherDisplay:10.37,2013-04-21 13:17:00,
2013-04-21 09:22:00,47.3,34.1,30.46,NE,51,9.2,9.2,60,0.00,CLR,,0.00,WeatherDisplay:10.37,2013-04-21 13:22:00,
2013-04-21 09:27:00,47.8,34.6,30.46,SE,130,6.9,6.9,60,0.00,CLR,,0.00,WeatherDisplay:10.37,2013-04-21 13:27:00,
2013-04-21 09:32:00,48.5,34.8,30.46,ENE,58,11.5,11.5,59,0.00,CLR,,0.00,WeatherDisplay:10.37,2013-04-21 13:32:00,
2013-04-21 09:37:00,49.1,35.4,30.46,ENE,76,19.6,19.6,59,0.00,CLR,,0.00,WeatherDisplay:10.37,2013-04-21 13:37:00,
2013-04-21 09:42:00,49.2,35.0,30.46,ENE,63,9.2,9.2,58,0.00,CLR,,0.00,WeatherDisplay:10.37,2013-04-21 13:42:00,
2013-04-21 09:47:00,49.6,36.7,30.46,NNE,24,11.5,11.5,61,0.00,CLR,,0.00,WeatherDisplay:10.37,2013-04-21 13:47:00,
2013-04-21 09:52:00,49.9,36.6,30.46,ENE,71,11.5,11.5,60,0.00,CLR,,0.00,WeatherDisplay:10.37,2013-04-21 13:52:00,
2013-04-21 09:57:00,49.7,35.5,30.46,NE,56,19.6,19.6,58,0.00,CLR,,0.00,WeatherDisplay:10.37,2013-04-21 13:57:00,
2013-04-21 10:02:00,49.2,35.5,30.46,ENE,67,13.8,13.8,59,0.00,CLR,,0.00,WeatherDisplay:10.37,2013-04-21 14:02:00,
2013-04-21 10:07:00,49.2,35.0,30.46,NE,55,12.7,12.7,58,0.00,CLR,,0.00,WeatherDisplay:10.37,2013-04-21 14:07:00,
2013-04-21 10:12:00,49.4,35.2,30.46,NE,53,11.5,11.5,58,0.00,CLR,,0.00,WeatherDisplay:10.37,2013-04-21 14:12:00,
2013-04-21 10:17:00,49.9,36.6,30.46,NE,35,15.0,15.0,60,0.00,CLR,,0.00,WeatherDisplay:10.37,2013-04-21 14:17:00,
2013-04-21 10:22:00,50.4,36.2,30.47,NNE,17,13.8,13.8,58,0.00,CLR,,0.00,WeatherDisplay:10.37,2013-04-21 14:22:00,
2013-04-21 10:27:00,50.9,35.7,30.47,NE,52,18.4,18.4,56,0.00,CLR,,0.00,WeatherDisplay:10.37,2013-04-21 14:27:00,
2013-04-21 10:32:00,51.3,36.1,30.47,NNE,17,13.8,13.8,56,0.00,CLR,,0.00,WeatherDisplay:10.37,2013-04-21 14:32:00,
2013-04-21 10:37:00,51.6,36.4,30.47,NE,55,13.8,13.8,56,0.00,CLR,,0.00,WeatherDisplay:10.37,2013-04-21 14:37:00,
2013-04-21 10:42:00,51.7,37.4,30.47,ENE,67,11.5,11.5,58,0.00,CLR,,0.00,WeatherDisplay:10.37,2013-04-21 14:42:00,
2013-04-21 10:47:00,52.3,36.6,30.47,NNE,26,12.7,12.7,55,0.00,CLR,,0.00,WeatherDisplay:10.37,2013-04-21 14:47:00,
2013-04-21 10:52:00,52.3,37.5,30.47,ENE,78,9.2,9.2,57,0.00,CLR,,0.00,WeatherDisplay:10.37,2013-04-21 14:52:00,
2013-04-21 10:57:00,52.1,35.9,30.47,East,90,12.0,12.0,54,0.00,CLR,,0.00,WeatherDisplay:10.37,2013-04-21 14:57:00,
2013-04-21 11:02:00,51.8,36.1,30.47,NNE,17,16.1,16.1,55,0.00,CLR,,0.00,WeatherDisplay:10.37,2013-04-21 15:02:00,
2013-04-21 11:07:00,52.3,38.0,30.47,North,5,13.0,13.0,58,0.00,CLR,,0.00,WeatherDisplay:10.37,2013-04-21 15:07:00,
2013-04-21 11:12:00,52.5,37.2,30.47,NE,43,10.4,10.4,56,0.00,CLR,,0.00,WeatherDisplay:10.37,2013-04-21 15:12:00,
2013-04-21 11:17:00,52.8,37.1,30.47,ENE,67,13.8,13.8,55,0.00,CLR,,0.00,WeatherDisplay:10.37,2013-04-21 15:17:00,
2013-04-21 11:22:00,52.7,37.0,30.47,East,93,12.7,12.7,55,0.00,CLR,,0.00,WeatherDisplay:10.37,2013-04-21 15:22:00,
2013-04-21 11:27:00,53.3,38.0,30.47,ENE,61,15.0,15.0,56,0.00,CLR,,0.00,WeatherDisplay:10.37,2013-04-21 15:27:00,
2013-04-21 11:32:00,53.6,37.8,30.47,NNE,22,12.7,12.7,55,0.00,CLR,,0.00,WeatherDisplay:10.37,2013-04-21 15:32:00,
2013-04-21 11:37:00,53.9,37.6,30.46,NE,49,14.0,14.0,54,0.00,CLR,,0.00,WeatherDisplay:10.37,2013-04-21 15:37:00,
2013-04-21 11:42:00,54.4,38.1,30.46,NNE,31,13.8,13.8,54,0.00,CLR,,0.00,WeatherDisplay:10.37,2013-04-21 15:42:00,
2013-04-21 11:47:00,54.7,37.9,30.46,NE,56,13.8,13.8,53,0.00,CLR,,0.00,WeatherDisplay:10.37,2013-04-21 15:47:00,
2013-04-21 11:52:00,54.8,39.8,30.46,ENE,64,10.4,10.4,57,0.00,CLR,,0.00,WeatherDisplay:10.37,2013-04-21 15:52:00,
2013-04-21 11:57:00,55.3,38.4,30.46,NNE,30,8.0,8.0,53,0.00,CLR,,0.00,WeatherDisplay:10.37,2013-04-21 15:57:00,
2013-04-21 12:02:00,55.3,38.9,30.46,NNE,18,15.0,15.0,54,0.00,CLR,,0.00,WeatherDisplay:10.37,2013-04-21 16:02:00,
2013-04-21 12:07:00,55.3,38.4,30.45,NE,46,13.8,13.8,53,0.00,CLR,,0.00,WeatherDisplay:10.37,2013-04-21 16:07:00,
2013-04-21 12:12:00,55.2,38.8,30.45,NNE,12,11.5,11.5,54,0.00,CLR,,0.00,WeatherDisplay:10.37,2013-04-21 16:12:00,
2013-04-21 12:17:00,55.4,39.5,30.45,NE,53,9.2,9.2,55,0.00,CLR,,0.00,WeatherDisplay:10.37,2013-04-21 16:17:00,
2013-04-21 12:22:00,55.4,37.6,30.46,ESE,113,15.0,15.0,51,0.00,CLR,,0.00,WeatherDisplay:10.37,2013-04-21 16:22:00,
2013-04-21 12:27:00,55.5,38.1,30.45,NE,49,11.5,11.5,52,0.00,CLR,,0.00,WeatherDisplay:10.37,2013-04-21 16:27:00,
2013-04-21 12:32:00,55.8,38.9,30.45,NE,53,12.7,12.7,53,0.00,CLR,,0.00,WeatherDisplay:10.37,2013-04-21 16:32:00,
2013-04-21 12:37:00,56.0,39.1,30.44,North,5,11.5,11.5,53,0.00,CLR,,0.00,WeatherDisplay:10.37,2013-04-21 16:37:00,
2013-04-21 12:42:00,56.2,39.3,30.44,ENE,74,9.2,9.2,53,0.00,CLR,,0.00,WeatherDisplay:10.37,2013-04-21 16:42:00,
2013-04-21 12:47:00,56.5,39.6,30.44,NE,53,15.0,15.0,53,0.00,CLR,,0.00,WeatherDisplay:10.37,2013-04-21 16:47:00,
2013-04-21 12:52:00,56.7,38.8,30.44,ENE,57,10.4,10.4,51,0.00,CLR,,0.00,WeatherDisplay:10.37,2013-04-21 16:52:00,
2013-04-21 12:57:00,56.5,39.6,30.44,NE,50,10.4,10.4,53,0.00,CLR,,0.00,WeatherDisplay:10.37,2013-04-21 16:57:00,
2013-04-21 13:02:00,56.6,39.2,30.44,NE,47,12.7,12.7,52,0.00,CLR,,0.00,WeatherDisplay:10.37,2013-04-21 17:02:00,
2013-04-21 13:07:00,56.8,38.9,30.44,East,81,11.5,11.5,51,0.00,CLR,,0.00,WeatherDisplay:10.37,2013-04-21 17:07:00,
2013-04-21 13:12:00,57.2,39.2,30.43,ENE,62,11.5,11.5,51,0.00,CLR,,0.00,WeatherDisplay:10.37,2013-04-21 17:12:00,
2013-04-21 13:17:00,57.3,39.8,30.43,NE,45,9.0,9.0,52,0.00,CLR,,0.00,WeatherDisplay:10.37,2013-04-21 17:17:00,
2013-04-21 13:22:00,57.2,39.7,30.43,ENE,67,4.6,4.6,52,0.00,CLR,,0.00,WeatherDisplay:10.37,2013-04-21 17:22:00,
2013-04-21 13:27:00,58.0,41.0,30.43,NE,42,11.5,11.5,53,0.00,CLR,,0.00,WeatherDisplay:10.37,2013-04-21 17:27:00,
2013-04-21 13:32:00,58.1,40.1,30.43,ESE,105,11.5,11.5,51,0.00,CLR,,0.00,WeatherDisplay:10.37,2013-04-21 17:32:00,
2013-04-21 13:37:00,58.0,40.5,30.42,NE,52,9.2,9.2,52,0.00,CLR,,0.00,WeatherDisplay:10.37,2013-04-21 17:37:00,
2013-04-21 13:42:00,58.2,39.6,30.43,ENE,74,11.5,11.5,50,0.00,CLR,,0.00,WeatherDisplay:10.37,2013-04-21 17:42:00,
2013-04-21 13:47:00,58.2,40.6,30.43,ENE,72,10.0,10.0,52,0.00,CLR,,0.00,WeatherDisplay:10.37,2013-04-21 17:47:00,
2013-04-21 13:52:00,58.1,39.5,30.42,ESE,117,13.8,13.8,50,0.00,CLR,,0.00,WeatherDisplay:10.37,2013-04-21 17:52:00,
2013-04-21 13:57:00,58.2,38.1,30.43,East,87,13.8,13.8,47,0.00,CLR,,0.00,WeatherDisplay:10.37,2013-04-21 17:57:00,
2013-04-21 14:02:00,58.4,39.8,30.43,East,82,10.4,10.4,50,0.00,CLR,,0.00,WeatherDisplay:10.37,2013-04-21 18:02:00,
2013-04-21 14:07:00,58.9,41.3,30.43,ENE,63,5.8,5.8,52,0.00,CLR,,0.00,WeatherDisplay:10.37,2013-04-21 18:07:00,
2013-04-21 14:12:00,59.0,39.9,30.43,ENE,75,11.5,11.5,49,0.00,CLR,,0.00,WeatherDisplay:10.37,2013-04-21 18:12:00,
2013-04-21 14:17:00,58.7,40.6,30.43,NE,42,9.2,9.2,51,0.00,CLR,,0.00,WeatherDisplay:10.37,2013-04-21 18:17:00,
2013-04-21 14:22:00,58.5,39.9,30.43,NE,39,6.9,6.9,50,0.00,CLR,,0.00,WeatherDisplay:10.37,2013-04-21 18:22:00,
2013-04-21 14:27:00,58.6,41.0,30.43,SSE,167,6.9,6.9,52,0.00,CLR,,0.00,WeatherDisplay:10.37,2013-04-21 18:27:00,
2013-04-21 14:32:00,58.8,41.2,30.43,NE,42,5.8,5.8,52,0.00,CLR,,0.00,WeatherDisplay:10.37,2013-04-21 18:32:00,
2013-04-21 14:38:00,59.0,39.9,30.43,ESE,117,6.9,6.9,49,0.00,CLR,,0.00,WeatherDisplay:10.37,2013-04-21 18:38:00,
2013-04-21 14:43:00,59.0,40.4,30.42,ESE,112,13.8,13.8,50,0.00,CLR,,0.00,WeatherDisplay:10.37,2013-04-21 18:43:00,
2013-04-21 14:48:00,59.1,42.0,30.42,South,179,3.5,3.5,53,0.00,CLR,,0.00,WeatherDisplay:10.37,2013-04-21 18:48:00,
2013-04-21 14:53:00,59.8,42.1,30.42,East,98,7.0,7.0,52,0.00,CLR,,0.00,WeatherDisplay:10.37,2013-04-21 18:53:00,
2013-04-21 14:58:00,59.4,39.7,30.43,ENE,66,11.5,11.5,48,0.00,CLR,,0.00,WeatherDisplay:10.37,2013-04-21 18:58:00,
2013-04-21 15:03:00,59.0,42.4,30.42,ESE,115,6.9,6.9,54,0.00,CLR,,0.00,WeatherDisplay:10.37,2013-04-21 19:03:00,
2013-04-21 15:08:00,59.6,40.4,30.42,East,83,9.2,9.2,49,0.00,CLR,,0.00,WeatherDisplay:10.37,2013-04-21 19:08:00,
2013-04-21 15:13:00,59.5,41.3,30.42,East,82,9.2,9.2,51,0.00,CLR,,0.00,WeatherDisplay:10.37,2013-04-21 19:13:00,
2013-04-21 15:18:00,59.3,40.7,30.42,East,91,11.5,11.5,50,0.00,CLR,,0.00,WeatherDisplay:10.37,2013-04-21 19:18:00,
2013-04-21 15:23:00,59.2,41.6,30.41,ENE,60,6.0,6.0,52,0.00,CLR,,0.00,WeatherDisplay:10.37,2013-04-21 19:23:00,
2013-04-21 15:28:00,59.7,41.0,30.41,North,350,3.5,0.0,50,0.00,CLR,,0.00,WeatherDisplay:10.37,2013-04-21 19:28:00,
2013-04-21 15:33:00,60.2,41.5,30.41,East,94,3.5,3.5,50,0.00,CLR,,0.00,WeatherDisplay:10.37,2013-04-21 19:33:00,
2013-04-21 15:38:00,60.8,42.0,30.41,South,191,9.2,9.2,50,0.00,CLR,,0.00,WeatherDisplay:10.37,2013-04-21 19:38:00,
2013-04-21 15:43:00,61.0,41.2,30.40,ENE,74,3.5,3.5,48,0.00,CLR,,0.00,WeatherDisplay:10.37,2013-04-21 19:43:00,
2013-04-21 15:48:00,60.7,42.5,30.40,ESE,103,4.6,4.6,51,0.00,CLR,,0.00,WeatherDisplay:10.37,2013-04-21 19:48:00,
2013-04-21 15:53:00,60.5,42.8,30.40,North,5,6.0,6.0,52,0.00,CLR,,0.00,WeatherDisplay:10.37,2013-04-21 19:53:00,
2013-04-21 15:58:00,60.7,39.8,30.40,ENE,67,10.4,10.4,46,0.00,CLR,,0.00,WeatherDisplay:10.37,2013-04-21 19:58:00,
2013-04-21 16:03:00,60.2,40.4,30.40,ESE,106,6.9,6.9,48,0.00,CLR,,0.00,WeatherDisplay:10.37,2013-04-21 20:03:00,
2013-04-21 16:08:00,60.2,40.4,30.40,South,175,9.2,9.2,48,0.00,CLR,,0.00,WeatherDisplay:10.37,2013-04-21 20:08:00,
2013-04-21 16:13:00,60.4,41.1,30.39,East,84,6.9,6.9,49,0.00,CLR,,0.00,WeatherDisplay:10.37,2013-04-21 20:13:00,
2013-04-21 16:18:00,60.3,41.6,30.39,NE,44,10.4,10.4,50,0.00,CLR,,0.00,WeatherDisplay:10.37,2013-04-21 20:18:00,
2013-04-21 16:23:00,60.2,41.0,30.39,ENE,59,8.1,8.1,49,0.00,CLR,,0.00,WeatherDisplay:10.37,2013-04-21 20:23:00,
2013-04-21 16:28:00,60.3,38.9,30.39,ENE,71,11.5,11.5,45,0.00,CLR,,0.00,WeatherDisplay:10.37,2013-04-21 20:28:00,
2013-04-21 16:33:00,60.1,40.9,30.39,NE,51,5.0,5.0,49,0.00,CLR,,0.00,WeatherDisplay:10.37,2013-04-21 20:33:00,
2013-04-21 16:38:00,60.2,40.4,30.39,ESE,102,10.4,10.4,48,0.00,CLR,,0.00,WeatherDisplay:10.37,2013-04-21 20:38:00,
2013-04-21 16:43:00,60.4,40.6,30.38,East,98,3.0,3.0,48,0.00,CLR,,0.00,WeatherDisplay:10.37,2013-04-21 20:43:00,
2013-04-21 16:48:00,60.4,40.1,30.38,ENE,63,5.8,5.8,47,0.00,CLR,,0.00,WeatherDisplay:10.37,2013-04-21 20:48:00,
2013-04-21 16:53:00,60.6,40.8,30.38,East,84,11.5,11.5,48,0.00,CLR,,0.00,WeatherDisplay:10.37,2013-04-21 20:53:00,
2013-04-21 16:58:00,60.4,39.5,30.37,NE,46,16.1,16.1,46,0.00,CLR,,0.00,WeatherDisplay:10.37,2013-04-21 20:58:00,
2013-04-21 17:03:00,60.2,40.4,30.37,ENE,64,10.4,10.4,48,0.00,CLR,,0.00,WeatherDisplay:10.37,2013-04-21 21:03:00,
2013-04-21 17:08:00,60.3,41.0,30.37,ESE,115,8.1,8.1,49,0.00,CLR,,0.00,WeatherDisplay:10.37,2013-04-21 21:08:00,
2013-04-21 17:13:00,60.4,41.1,30.37,NE,38,9.2,9.2,49,0.00,CLR,,0.00,WeatherDisplay:10.37,2013-04-21 21:13:00,
2013-04-21 17:18:00,60.5,40.7,30.37,SE,134,3.5,3.5,48,0.00,CLR,,0.00,WeatherDisplay:10.37,2013-04-21 21:18:00,
2013-04-21 17:23:00,60.8,41.0,30.37,NE,42,10.4,10.4,48,0.00,CLR,,0.00,WeatherDisplay:10.37,2013-04-21 21:23:00,
2013-04-21 17:28:00,60.7,41.4,30.37,East,90,6.9,6.9,49,0.00,CLR,,0.00,WeatherDisplay:10.37,2013-04-21 21:28:00,
2013-04-21 17:33:00,60.7,40.9,30.37,ENE,57,3.5,3.5,48,0.00,CLR,,0.00,WeatherDisplay:10.37,2013-04-21 21:33:00,
2013-04-21 17:38:00,60.8,42.0,30.37,ENE,61,9.2,9.2,50,0.00,CLR,,0.00,WeatherDisplay:10.37,2013-04-21 21:38:00,
2013-04-21 17:43:00,60.7,40.9,30.37,ENE,76,7.0,7.0,48,0.00,CLR,,0.00,WeatherDisplay:10.37,2013-04-21 21:43:00,
2013-04-21 17:48:00,60.4,41.1,30.37,ESE,113,9.2,9.2,49,0.00,CLR,,0.00,WeatherDisplay:10.37,2013-04-21 21:48:00,
2013-04-21 17:53:00,60.4,42.2,30.37,ENE,63,5.8,5.8,51,0.00,CLR,,0.00,WeatherDisplay:10.37,2013-04-21 21:53:00,
2013-04-21 17:58:00,60.5,42.3,30.38,SE,135,3.5,3.5,51,0.00,CLR,,0.00,WeatherDisplay:10.37,2013-04-21 21:58:00,
2013-04-21 18:03:00,60.8,42.5,30.38,NE,38,3.5,0.0,51,0.00,CLR,,0.00,WeatherDisplay:10.37,2013-04-21 22:03:00,
2013-04-21 18:08:00,61.1,41.8,30.38,ESE,105,9.2,9.2,49,0.00,CLR,,0.00,WeatherDisplay:10.37,2013-04-21 22:08:00,
2013-04-21 18:13:00,60.8,41.5,30.38,ESE,109,10.0,10.0,49,0.00,CLR,,0.00,WeatherDisplay:10.37,2013-04-21 22:13:00,
2013-04-21 18:18:00,60.3,41.0,30.38,East,94,9.2,9.2,49,0.00,CLR,,0.00,WeatherDisplay:10.37,2013-04-21 22:18:00,
2013-04-21 18:23:00,59.7,41.0,30.38,North,355,6.0,6.0,50,0.00,CLR,,0.00,WeatherDisplay:10.37,2013-04-21 22:23:00,
2013-04-21 18:28:00,59.1,40.5,30.38,East,98,5.8,5.8,50,0.00,CLR,,0.00,WeatherDisplay:10.37,2013-04-21 22:28:00,
2013-04-21 18:33:00,59.0,41.4,30.38,ENE,70,4.6,4.6,52,0.00,CLR,,0.00,WeatherDisplay:10.37,2013-04-21 22:33:00,
2013-04-21 18:38:00,58.7,41.1,30.38,ENE,69,3.5,0.0,52,0.00,CLR,,0.00,WeatherDisplay:10.37,2013-04-21 22:38:00,
2013-04-21 18:43:00,58.5,41.4,30.38,ENE,69,2.3,2.3,53,0.00,CLR,,0.00,WeatherDisplay:10.37,2013-04-21 22:43:00,
2013-04-21 18:48:00,58.4,41.3,30.38,NE,47,4.6,4.6,53,0.00,CLR,,0.00,WeatherDisplay:10.37,2013-04-21 22:48:00,
2013-04-21 18:53:00,58.6,41.0,30.38,East,82,6.9,6.9,52,0.00,CLR,,0.00,WeatherDisplay:10.37,2013-04-21 22:53:00,
2013-04-21 18:58:00,59.0,40.9,30.38,ENE,68,9.2,9.2,51,0.00,CLR,,0.00,WeatherDisplay:10.37,2013-04-21 22:58:00,
2013-04-21 19:03:00,59.0,40.9,30.39,ESE,111,4.6,4.6,51,0.00,CLR,,0.00,WeatherDisplay:10.37,2013-04-21 23:03:00,
2013-04-21 19:08:00,59.0,40.9,30.39,ENE,59,5.8,5.8,51,0.00,CLR,,0.00,WeatherDisplay:10.37,2013-04-21 23:08:00,
2013-04-21 19:13:00,58.8,41.2,30.39,NE,56,4.0,4.0,52,0.00,CLR,,0.00,WeatherDisplay:10.37,2013-04-21 23:13:00,
2013-04-21 19:18:00,58.5,40.9,30.39,NE,49,5.0,5.0,52,0.00,CLR,,0.00,WeatherDisplay:10.37,2013-04-21 23:18:00,
2013-04-21 19:23:00,58.2,41.1,30.39,East,86,3.0,3.0,53,0.00,CLR,,0.00,WeatherDisplay:10.37,2013-04-21 23:23:00,
2013-04-21 19:28:00,57.9,40.9,30.39,ENE,76,3.5,3.5,53,0.00,CLR,,0.00,WeatherDisplay:10.37,2013-04-21 23:28:00,
2013-04-21 19:33:00,57.7,41.2,30.39,ENE,76,0.0,0.1,54,0.00,CLR,,0.00,WeatherDisplay:10.37,2013-04-21 23:33:00,
2013-04-21 19:38:00,57.5,41.0,30.39,ENE,75,0.0,0.0,54,0.00,CLR,,0.00,WeatherDisplay:10.37,2013-04-21 23:38:00,
2013-04-21 19:43:00,57.2,41.2,30.39,ENE,75,3.5,3.5,55,0.00,CLR,,0.00,WeatherDisplay:10.37,2013-04-21 23:43:00,
2013-04-21 19:48:00,56.9,40.9,30.39,ENE,75,2.3,2.3,55,0.00,CLR,,0.00,WeatherDisplay:10.37,2013-04-21 23:48:00,
2013-04-21 19:53:00,56.6,41.1,30.39,ENE,75,1.2,1.2,56,0.00,CLR,,0.00,WeatherDisplay:10.37,2013-04-21 23:53:00,
2013-04-21 19:58:00,56.4,41.3,30.39,ENE,69,0.0,0.0,57,0.00,CLR,,0.00,WeatherDisplay:10.37,2013-04-21 23:58:00,
2013-04-21 20:03:00,56.2,41.2,30.40,ENE,70,0.0,0.0,57,0.00,CLR,,0.00,WeatherDisplay:10.37,2013-04-22 00:03:00,
2013-04-21 20:08:00,56.0,41.4,30.40,ENE,70,0.0,0.0,58,0.00,CLR,,0.00,WeatherDisplay:10.37,2013-04-22 00:08:00,
2013-04-21 20:13:00,55.9,41.8,30.40,ENE,69,0.0,0.0,59,0.00,CLR,,0.00,WeatherDisplay:10.37,2013-04-22 00:13:00,
2013-04-21 20:18:00,55.7,41.6,30.40,ENE,69,0.0,0.0,59,0.00,CLR,,0.00,WeatherDisplay:10.37,2013-04-22 00:18:00,
2013-04-21 20:23:00,55.5,41.4,30.41,ENE,70,0.0,0.0,59,0.00,CLR,,0.00,WeatherDisplay:10.37,2013-04-22 00:23:00,
2013-04-21 20:28:00,55.3,41.6,30.41,ENE,70,0.0,0.0,60,0.00,CLR,,0.00,WeatherDisplay:10.37,2013-04-22 00:28:00,
2013-04-21 20:33:00,55.0,41.4,30.41,ENE,70,0.0,0.0,60,0.00,CLR,,0.00,WeatherDisplay:10.37,2013-04-22 00:33:00,
2013-04-21 20:38:00,54.7,41.5,30.41,ENE,70,0.0,0.0,61,0.00,CLR,,0.00,WeatherDisplay:10.37,2013-04-22 00:38:00,
2013-04-21 20:43:00,54.4,41.6,30.41,ENE,70,0.0,0.0,62,0.00,CLR,,0.00,WeatherDisplay:10.37,2013-04-22 00:43:00,
2013-04-21 20:48:00,54.1,41.8,30.42,ENE,70,0.0,0.0,63,0.00,CLR,,0.00,WeatherDisplay:10.37,2013-04-22 00:48:00,
2013-04-21 20:53:00,54.0,42.1,30.42,ENE,69,0.0,0.0,64,0.00,CLR,,0.00,WeatherDisplay:10.37,2013-04-22 00:53:00,
2013-04-21 20:58:00,53.7,41.8,30.42,ENE,70,0.0,0.0,64,0.00,CLR,,0.00,WeatherDisplay:10.37,2013-04-22 00:58:00,
2013-04-21 21:03:00,53.5,41.6,30.42,ENE,70,0.0,0.0,64,0.00,CLR,,0.00,WeatherDisplay:10.37,2013-04-22 01:03:00,
2013-04-21 21:08:00,53.2,41.7,30.42,ENE,70,0.0,0.0,65,0.00,CLR,,0.00,WeatherDisplay:10.37,2013-04-22 01:08:00,
2013-04-21 21:13:00,53.0,41.5,30.42,ENE,69,0.0,0.0,65,0.00,CLR,,0.00,WeatherDisplay:10.37,2013-04-22 01:13:00,
2013-04-21 21:18:00,52.8,41.0,30.43,ENE,70,0.0,0.0,64,0.00,CLR,,0.00,WeatherDisplay:10.37,2013-04-22 01:18:00,
2013-04-21 21:23:00,52.7,42.0,30.43,ENE,69,0.0,0.0,67,0.00,CLR,,0.00,WeatherDisplay:10.37,2013-04-22 01:23:00,
2013-04-21 21:28:00,52.6,41.9,30.43,ENE,69,0.0,0.0,67,0.00,CLR,,0.00,WeatherDisplay:10.37,2013-04-22 01:28:00,
2013-04-21 21:33:00,52.5,41.5,30.43,ENE,69,0.0,0.0,66,0.00,CLR,,0.00,WeatherDisplay:10.37,2013-04-22 01:33:00,
2013-04-21 21:38:00,52.4,42.5,30.43,ENE,70,0.0,0.0,69,0.00,CLR,,0.00,WeatherDisplay:10.37,2013-04-22 01:38:00,
2013-04-21 21:43:00,52.4,42.1,30.43,ENE,70,0.0,0.0,68,0.00,CLR,,0.00,WeatherDisplay:10.37,2013-04-22 01:43:00,
2013-04-21 21:48:00,52.3,42.8,30.44,ENE,70,0.0,0.0,70,0.00,CLR,,0.00,WeatherDisplay:10.37,2013-04-22 01:48:00,
2013-04-21 21:53:00,52.3,43.2,30.44,ENE,70,0.0,0.0,71,0.00,CLR,,0.00,WeatherDisplay:10.37,2013-04-22 01:53:00,
2013-04-21 21:58:00,52.1,42.6,30.44,ENE,70,0.0,0.0,70,0.00,CLR,,0.00,WeatherDisplay:10.37,2013-04-22 01:58:00,
2013-04-21 22:03:00,52.1,42.6,30.44,ENE,69,0.0,0.0,70,0.00,CLR,,0.00,WeatherDisplay:10.37,2013-04-22 02:03:00,
2013-04-21 22:08:00,52.0,42.1,30.44,ENE,69,0.0,0.0,69,0.00,CLR,,0.00,WeatherDisplay:10.37,2013-04-22 02:08:00,
2013-04-21 22:13:00,51.9,42.0,30.44,ENE,70,0.0,0.0,69,0.00,CLR,,0.00,WeatherDisplay:10.37,2013-04-22 02:13:00,
2013-04-21 22:18:00,52.0,41.8,30.44,ENE,70,0.0,0.0,68,0.00,CLR,,0.00,WeatherDisplay:10.37,2013-04-22 02:18:00,
2013-04-21 22:23:00,52.1,42.2,30.44,ENE,70,0.0,0.0,69,0.00,CLR,,0.00,WeatherDisplay:10.37,2013-04-22 02:23:00,
2013-04-21 22:28:00,52.2,41.6,30.44,ENE,70,0.0,0.0,67,0.00,CLR,,0.00,WeatherDisplay:10.37,2013-04-22 02:28:00,
2013-04-21 22:33:00,52.3,41.7,30.44,ENE,70,3.5,3.5,67,0.00,CLR,,0.00,WeatherDisplay:10.37,2013-04-22 02:33:00,
2013-04-21 22:38:00,52.4,41.4,30.44,ENE,70,0.0,0.0,66,0.00,CLR,,0.00,WeatherDisplay:10.37,2013-04-22 02:38:00,
2013-04-21 22:43:00,52.5,41.9,30.44,ENE,70,2.0,2.0,67,0.00,CLR,,0.00,WeatherDisplay:10.37,2013-04-22 02:43:00,
2013-04-21 22:48:00,52.7,41.7,30.44,ENE,69,3.5,3.5,66,0.00,CLR,,0.00,WeatherDisplay:10.37,2013-04-22 02:48:00,
2013-04-21 22:53:00,52.8,41.4,30.44,ENE,70,0.0,0.1,65,0.00,CLR,,0.00,WeatherDisplay:10.37,2013-04-22 02:53:00,
2013-04-21 22:58:00,52.8,41.4,30.44,ENE,70,3.5,3.5,65,0.00,CLR,,0.00,WeatherDisplay:10.37,2013-04-22 02:58:00,
2013-04-21 23:03:00,52.8,41.4,30.44,ENE,69,3.5,3.5,65,0.00,CLR,,0.00,WeatherDisplay:10.37,2013-04-22 03:03:00,
2013-04-21 23:08:00,52.9,41.4,30.44,ENE,69,2.3,2.3,65,0.00,CLR,,0.00,WeatherDisplay:10.37,2013-04-22 03:08:00,
2013-04-21 23:13:00,52.9,41.4,30.44,ENE,69,3.5,3.5,65,0.00,CLR,,0.00,WeatherDisplay:10.37,2013-04-22 03:13:00,
2013-04-21 23:18:00,52.9,41.4,30.44,East,80,0.0,0.0,65,0.00,CLR,,0.00,WeatherDisplay:10.37,2013-04-22 03:18:00,
2013-04-21 23:23:00,52.9,41.4,30.43,East,80,2.3,2.3,65,0.00,CLR,,0.00,WeatherDisplay:10.37,2013-04-22 03:23:00,
2013-04-21 23:28:00,52.8,41.4,30.43,East,80,0.0,0.0,65,0.00,CLR,,0.00,WeatherDisplay:10.37,2013-04-22 03:28:00,
2013-04-21 23:33:00,52.8,41.4,30.43,East,80,3.5,3.5,65,0.00,CLR,,0.00,WeatherDisplay:10.37,2013-04-22 03:33:00,
2013-04-21 23:38:00,52.8,41.4,30.43,East,98,4.6,4.6,65,0.00,CLR,,0.00,WeatherDisplay:10.37,2013-04-22 03:38:00,
2013-04-21 23:43:00,52.8,41.4,30.43,NE,41,3.5,3.5,65,0.00,CLR,,0.00,WeatherDisplay:10.37,2013-04-22 03:43:00,
2013-04-21 23:48:00,52.8,41.0,30.43,ESE,103,5.8,5.8,64,0.00,CLR,,0.00,WeatherDisplay:10.37,2013-04-22 03:48:00,
2013-04-21 23:53:00,52.8,41.0,30.43,ENE,69,3.5,3.5,64,0.00,CLR,,0.00,WeatherDisplay:10.37,2013-04-22 03:53:00,
2013-04-21 23:58:00,52.8,41.0,30.43,ENE,78,5.8,5.8,64,0.00,CLR,,0.00,WeatherDisplay:10.37,2013-04-22 03:58:00,